Date String (YYYY-MM-DD hh:mm:ss) UTC,Instrument flags,Ambient pressure (hPa),Sample flow (lpm),Bypass flow (lpm),Sample temperature (°C),Ambient temperature (°C),ASC tube jacket temperature (°C),LED temperature (°C),Box temperature (°C),Sample RH (%),Span deviation,Mass concentration (μg/m³),Mass concentration (μg/m³),Mass concentration (μg/m³)
DateTimeUTC,F1_M11,P_M11,Q1_M11,Q2_M11,T1_M11,T2_M11,T3_M11,T4_M11,T5_M11,U1_M11,ZSPAN_M11,X0_M11,X2_M11,X1_M11
2022-02-07 06:00:00,,0833.3,4.99,0.00,22.5,23.0,00.0,31.3,24.4,06.1,0000.0,0001.22,0000.94,0000.84
2022-02-07 06:01:00,,0833.3,5.00,0.00,22.5,22.8,00.0,31.4,24.4,06.1,0000.0,0001.28,0000.95,0000.81
2022-02-07 06:02:00,,0833.3,5.00,0.00,22.5,22.6,00.0,31.4,24.3,06.0,0000.0,0001.30,0000.94,0000.80
2022-02-07 06:03:00,,0833.3,5.00,0.00,22.5,22.4,00.0,31.4,24.3,06.0,0000.0,0001.29,0000.93,0000.79
2022-02-07 06:04:00,,0833.3,5.01,0.00,22.5,22.2,00.0,31.4,24.2,06.0,0000.0,0001.31,0000.92,0000.77
2022-02-07 06:05:00,,0833.3,5.00,0.00,22.4,22.1,00.0,31.4,24.2,06.0,0000.0,0001.31,0000.92,0000.76
2022-02-07 06:06:00,,0833.3,4.98,0.00,22.4,22.0,00.0,31.4,24.1,06.0,0000.0,0001.31,0000.91,0000.76
2022-02-07 06:07:00,,0833.2,4.99,0.00,22.4,21.9,00.0,31.4,24.1,06.0,0000.0,0001.27,0000.89,0000.75
2022-02-07 06:08:00,,0833.2,5.02,0.00,22.4,21.8,00.0,31.4,24.1,06.0,0000.0,0001.46,0000.90,0000.76
2022-02-07 06:09:00,,0833.2,4.99,0.00,22.3,21.8,00.0,31.4,24.0,06.0,0000.0,0001.62,0000.87,0000.75
2022-02-07 06:10:00,,0833.2,4.99,0.00,22.3,21.7,00.0,31.4,24.0,06.0,0000.0,0001.65,0000.88,0000.74
2022-02-07 06:11:00,,0833.2,5.02,0.00,22.3,21.7,00.0,31.3,24.0,06.0,0000.0,0001.71,0000.90,0000.74
2022-02-07 06:12:00,,0833.2,4.99,0.00,22.3,21.6,00.0,31.3,24.0,06.0,0000.0,0001.70,0000.89,0000.73
2022-02-07 06:13:00,,0833.2,4.99,0.00,22.3,21.6,00.0,31.3,23.9,06.0,0000.0,0001.67,0000.88,0000.72
2022-02-07 06:14:00,,0833.2,5.01,0.00,22.2,21.5,00.0,31.3,23.9,06.0,0000.0,0001.64,0000.87,0000.71
2022-02-07 06:15:00,,0833.2,5.01,0.00,22.2,21.5,00.0,31.3,23.9,06.0,0000.0,0001.61,0000.85,0000.71
2022-02-07 06:16:00,,0833.2,5.01,0.00,22.2,21.5,00.0,31.3,23.8,06.0,0000.0,0001.62,0000.87,0000.71
2022-02-07 06:17:00,,0833.2,4.99,0.00,22.2,21.5,00.0,31.3,23.8,06.0,0000.0,0001.60,0000.86,0000.70
2022-02-07 06:18:00,,0833.2,5.01,0.00,22.2,21.4,00.0,31.3,23.8,06.1,0000.0,0001.62,0000.86,0000.70
2022-02-07 06:19:00,,0833.3,5.00,0.00,22.2,21.6,00.0,31.3,23.9,06.2,0000.0,0001.38,0000.85,0000.70
2022-02-07 06:20:00,,0833.3,5.00,0.00,22.3,22.3,00.0,31.3,24.1,06.1,0000.0,0001.23,0000.85,0000.71
2022-02-07 06:21:00,,0833.4,5.00,0.00,22.4,22.9,00.0,31.3,24.3,06.0,0000.0,0001.20,0000.84,0000.72
2022-02-07 06:22:00,,0833.3,5.00,0.00,22.5,23.0,00.0,31.4,24.4,06.0,0000.0,0001.17,0000.84,0000.72
2022-02-07 06:23:00,,0833.4,5.00,0.00,22.6,22.8,00.0,31.4,24.4,06.0,0000.0,0001.10,0000.81,0000.73
2022-02-07 06:24:00,,0833.3,5.00,0.00,22.5,22.6,00.0,31.4,24.4,06.0,0000.0,0001.07,0000.80,0000.72
2022-02-07 06:25:00,,0833.3,5.02,0.00,22.5,22.4,00.0,31.4,24.3,06.0,0000.0,0001.07,0000.80,0000.73
2022-02-07 06:26:00,,0833.2,4.99,0.00,22.5,22.2,00.0,31.4,24.2,05.9,0000.0,0001.12,0000.84,0000.73
2022-02-07 06:27:00,,0833.1,5.00,0.00,22.5,22.1,00.0,31.4,24.2,05.9,0000.0,0001.10,0000.83,0000.74
2022-02-07 06:28:00,,0833.1,5.01,0.00,22.4,22.0,00.0,31.4,24.2,05.9,0000.0,0001.12,0000.84,0000.74
2022-02-07 06:29:00,,0833.1,4.99,0.00,22.4,21.9,00.0,31.4,24.1,05.9,0000.0,0001.10,0000.83,0000.75
2022-02-07 06:30:00,,0833.1,5.00,0.00,22.4,21.8,00.0,31.4,24.1,05.9,0000.0,0001.03,0000.81,0000.73
2022-02-07 06:31:00,,0833.1,5.00,0.00,22.4,21.8,00.0,31.4,24.1,05.9,0000.0,0001.04,0000.81,0000.73
2022-02-07 06:32:00,,0833.1,5.01,0.00,22.4,21.7,00.0,31.4,24.0,05.8,0000.0,0001.05,0000.81,0000.73
2022-02-07 06:33:00,,0833.1,5.00,0.00,22.3,21.7,00.0,31.4,24.0,05.8,0000.0,0001.02,0000.79,0000.72
2022-02-07 06:34:00,,0833.1,5.01,0.00,22.3,21.6,00.0,31.4,24.0,05.8,0000.0,0000.99,0000.78,0000.72
2022-02-07 06:35:00,,0833.1,4.99,0.00,22.3,21.6,00.0,31.4,24.0,05.8,0000.0,0001.01,0000.79,0000.72
2022-02-07 06:36:00,,0833.1,5.02,0.00,22.3,21.6,00.0,31.3,24.0,05.8,0000.0,0001.08,0000.81,0000.71
2022-02-07 06:37:00,,0833.1,5.00,0.00,22.3,21.6,00.0,31.3,24.0,05.8,0000.0,0001.05,0000.79,0000.71
2022-02-07 06:38:00,,0833.1,4.99,0.00,22.3,21.5,00.0,31.3,23.9,05.8,0000.0,0001.03,0000.78,0000.70
2022-02-07 06:39:00,,0833.1,5.01,0.00,22.2,21.5,00.0,31.3,23.9,05.8,0000.0,0001.03,0000.78,0000.70
2022-02-07 06:40:00,,0833.1,5.00,0.00,22.3,21.8,00.0,31.3,24.0,05.8,0000.0,0001.05,0000.78,0000.69
2022-02-07 06:41:00,,0833.1,5.00,0.00,22.4,22.5,00.0,31.4,24.2,05.8,0000.0,0001.04,0000.77,0000.68
2022-02-07 06:42:00,,0833.2,4.99,0.00,22.5,23.2,00.0,31.4,24.5,05.7,0000.0,0001.01,0000.76,0000.67
2022-02-07 06:43:00,,0833.1,5.01,0.00,22.6,23.2,00.0,31.4,24.5,05.7,0000.0,0000.97,0000.74,0000.66
2022-02-07 06:44:00,,0833.1,5.00,0.00,22.6,22.9,00.0,31.4,24.5,05.7,0000.0,0000.97,0000.73,0000.65
2022-02-07 06:45:00,,0833.1,5.00,0.00,22.6,22.7,00.0,31.4,24.5,05.7,0000.0,0001.01,0000.74,0000.65
2022-02-07 06:46:00,,0833.2,5.00,0.00,22.6,22.5,00.0,31.5,24.4,05.6,0000.0,0001.01,0000.74,0000.64
2022-02-07 06:47:00,,0833.3,5.01,0.00,22.6,22.4,00.0,31.5,24.4,05.6,0000.0,0000.91,0000.70,0000.63
2022-02-07 06:48:00,,0833.3,5.00,0.00,22.6,22.2,00.0,31.5,24.3,05.7,0000.0,0000.88,0000.68,0000.63
2022-02-07 06:49:00,,0833.3,5.01,0.00,22.6,22.1,00.0,31.5,24.3,05.7,0000.0,0000.87,0000.67,0000.62
2022-02-07 06:50:00,,0833.3,4.98,0.00,22.5,22.0,00.0,31.5,24.2,05.7,0000.0,0000.83,0000.65,0000.60
2022-02-07 06:51:00,,0833.3,5.01,0.00,22.5,22.0,00.0,31.5,24.2,05.7,0000.0,0000.82,0000.63,0000.60
2022-02-07 06:52:00,,0833.3,4.99,0.00,22.5,21.9,00.0,31.5,24.2,05.7,0000.0,0000.83,0000.64,0000.60
2022-02-07 06:53:00,,0833.2,5.01,0.00,22.5,21.9,00.0,31.5,24.2,05.7,0000.0,0000.89,0000.66,0000.60
2022-02-07 06:54:00,,0833.2,4.99,0.00,22.5,21.8,00.0,31.5,24.2,05.7,0000.0,0000.93,0000.68,0000.60
2022-02-07 06:55:00,,0833.2,5.01,0.00,22.5,21.8,00.0,31.4,24.2,05.7,0000.0,0000.93,0000.69,0000.60
2022-02-07 06:56:00,,0833.2,4.99,0.00,22.5,21.8,00.0,31.4,24.2,05.7,0000.0,0000.90,0000.68,0000.60
2022-02-07 06:57:00,,0833.2,5.00,0.00,22.5,21.7,00.0,31.4,24.2,05.7,0000.0,0000.89,0000.68,0000.60
2022-02-07 06:58:00,,0833.1,5.00,0.00,22.4,21.7,00.0,31.4,24.2,05.7,0000.0,0001.00,0000.70,0000.60
2022-02-07 06:59:00,,0833.1,5.00,0.00,22.4,21.7,00.0,31.4,24.2,05.8,0000.0,0001.11,0000.72,0000.60
